�N����,����,�~����,�C��,���x,�C��,����,���ϕ���,�ő�u�ԕ���,�ő厞����,���˗�,�I�_���x,�n�����x,�ő啗���N��,DTYPE
"17/12/07","00:10",0.0,0.5,90.4,1014.9,321.5,0.8,1.8,333.3,0.00,-0.8,6.2,"00:00:02",1
"17/12/07","00:20",0.0,0.3,90.7,1014.7,322.9,1.6,2.0,323.9,0.00,-1.0,6.1,"00:19:12",1
"17/12/07","00:30",0.0,-0.2,91.9,1014.7,285.7,0.8,1.8,333.3,0.00,-1.3,5.9,"00:20:24",1
"17/12/07","00:40",0.0,0.0,93.9,1014.9,303.2,1.0,2.1,335.4,0.00,-0.8,6.1,"00:37:12",1
"17/12/07","00:50",0.0,0.2,93.1,1014.5,317.9,1.3,2.0,338.1,0.00,-0.7,6.0,"00:43:12",1
"17/12/07","01:00",0.0,0.8,93.9,1014.7,321.8,2.1,4.3,331.0,0.00,0.0,5.9,"00:57:20",1
"17/12/07","01:10",0.0,1.4,91.4,1014.9,316.3,3.2,4.9,334.5,0.00,0.2,5.9,"01:07:28",1
"17/12/07","01:20",0.0,1.5,88.7,1015.4,307.3,3.2,4.8,327.6,0.00,-0.1,5.9,"01:15:36",1
"17/12/07","01:30",0.0,1.3,88.1,1015.4,282.1,2.0,3.4,326.3,0.00,-0.4,5.9,"01:21:20",1
"17/12/07","01:40",0.0,1.1,89.2,1015.6,283.3,2.1,2.9,295.0,0.00,-0.4,5.7,"01:30:56",1
"17/12/07","01:50",0.0,0.3,88.5,1015.6,309.8,2.1,3.1,325.5,0.00,-1.3,5.7,"01:43:52",1
"17/12/07","02:00",0.0,-0.1,91.9,1015.6,323.2,1.2,2.0,315.9,0.00,-1.2,5.9,"01:51:52",1
"17/12/07","02:10",0.0,-0.3,92.9,1016.1,296.8,0.5,1.4,337.3,0.00,-1.3,5.7,"02:06:48",1
"17/12/07","02:20",0.0,-0.5,93.3,1015.9,338.7,0.5,1.0,338.3,0.00,-1.4,5.8,"02:16:08",1
"17/12/07","02:30",0.0,-0.7,94.6,1015.9,299.4,0.5,0.8,316.5,0.00,-1.4,5.6,"02:21:04",1
"17/12/07","02:40",0.0,-0.4,95.7,1015.9,258.5,0.6,1.1,322.7,0.00,-1.0,5.8,"02:38:16",1
"17/12/07","02:50",0.0,-0.3,95.0,1015.9,287.4,0.6,1.1,302.6,0.00,-1.0,5.8,"02:45:20",1
"17/12/07","03:00",0.0,-0.7,94.9,1015.6,333.8,0.3,1.6,322.2,0.00,-1.4,5.7,"02:59:12",1
"17/12/07","03:10",0.0,-1.1,95.5,1015.6,317.5,1.3,1.9,323.1,0.00,-1.7,5.7,"03:02:08",1
"17/12/07","03:20",0.0,-1.3,96.2,1015.9,319.7,1.5,2.8,317.2,0.00,-1.8,5.7,"03:10:02",1
"17/12/07","03:30",0.0,-1.4,97.1,1015.6,317.0,1.6,2.8,319.7,0.00,-1.8,5.5,"03:20:16",1
"17/12/07","03:40",0.0,-1.5,97.5,1015.4,302.5,1.7,2.5,319.8,0.00,-1.8,5.5,"03:37:44",1
"17/12/07","03:50",0.0,-1.1,98.3,1015.2,302.4,1.7,3.2,320.2,0.00,-1.3,5.3,"03:44:24",1
"17/12/07","04:00",0.0,-1.1,96.6,1015.4,309.2,1.6,2.4,313.1,0.00,-1.5,5.4,"03:58:24",1
"17/12/07","04:10",0.0,-1.2,98.4,1015.4,301.1,1.6,2.1,320.9,0.00,-1.4,5.4,"04:00:08",1
"17/12/07","04:20",0.0,-1.0,97.1,1015.6,311.6,2.0,2.2,314.9,0.00,-1.4,5.4,"04:13:36",1
"17/12/07","04:30",0.0,-1.3,97.2,1015.4,333.7,1.3,2.4,332.7,0.00,-1.6,5.2,"04:21:20",1
"17/12/07","04:40",0.0,-1.6,98.3,1015.2,304.2,1.8,2.4,311.6,0.00,-1.8,5.2,"04:37:04",1
"17/12/07","04:50",0.0,-1.2,98.0,1015.4,316.1,1.8,2.4,313.8,0.00,-1.4,5.4,"04:40:32",1
"17/12/07","05:00",0.0,-1.4,97.1,1015.2,317.1,1.0,1.8,304.8,0.00,-1.8,5.3,"04:52:56",1
"17/12/07","05:10",0.0,-1.9,97.9,1014.9,305.2,2.0,2.8,317.6,0.00,-2.1,5.1,"05:01:28",1
"17/12/07","05:20",0.0,-1.6,99.0,1014.7,323.6,2.2,3.1,322.4,0.00,-1.7,5.0,"05:13:36",1
"17/12/07","05:30",0.0,-1.6,97.6,1014.9,316.3,2.0,2.6,317.4,0.00,-1.9,5.0,"05:29:20",1
"17/12/07","05:40",0.0,-1.8,98.9,1015.2,339.4,1.1,2.5,306.2,0.00,-1.9,5.0,"05:30:08",1
"17/12/07","05:50",0.0,-1.7,98.1,1014.9,315.6,2.1,2.7,322.3,0.00,-1.9,4.9,"05:43:36",1
"17/12/07","06:00",0.0,-2.0,98.3,1015.4,323.9,2.7,3.5,326.2,0.00,-2.2,5.1,"05:53:04",1
"17/12/07","06:10",0.0,-1.9,98.4,1014.9,317.0,2.7,2.9,321.3,0.00,-2.1,5.0,"06:03:28",1
"17/12/07","06:20",0.0,-1.8,98.5,1015.4,311.0,2.3,2.7,319.3,0.00,-2.0,5.0,"06:10:08",1
"17/12/07","06:30",0.0,-1.6,98.6,1015.4,300.9,2.1,2.6,313.7,0.00,-1.8,4.9,"06:20:08",1
"17/12/07","06:40",0.0,-1.3,98.0,1015.2,305.8,1.8,2.6,317.0,0.00,-1.5,4.8,"06:38:16",1
"17/12/07","06:50",0.0,-1.3,97.8,1015.2,335.3,1.0,2.5,311.5,0.00,-1.6,4.9,"06:40:02",1
"17/12/07","07:00",0.0,-1.9,98.8,1015.4,319.5,2.6,3.1,325.5,0.00,-2.0,4.9,"06:55:52",1
"17/12/07","07:10",0.0,-1.7,98.3,1015.6,311.6,2.1,2.6,320.7,0.00,-1.9,4.8,"07:00:16",1
"17/12/07","07:20",0.0,-1.6,99.0,1015.4,299.1,2.0,2.4,282.9,0.00,-1.7,4.7,"07:13:44",1
"17/12/07","07:30",0.0,-0.9,98.7,1015.4,307.6,1.2,1.9,329.3,0.00,-1.0,4.7,"07:29:04",1
"17/12/07","07:40",0.0,-0.3,98.0,1015.6,300.2,1.1,2.0,309.5,0.01,-0.5,4.7,"07:30:02",1
"17/12/07","07:50",0.0,-0.2,96.7,1015.6,320.5,1.5,2.7,320.7,0.02,-0.6,4.8,"07:41:20",1
"17/12/07","08:00",0.0,0.6,97.9,1015.4,284.2,1.6,2.4,312.9,0.03,0.3,4.7,"07:51:04",1
"17/12/07","08:10",0.0,1.9,93.5,1015.6,282.3,1.8,2.5,264.4,0.03,1.0,4.7,"08:04:44",1
"17/12/07","08:20",0.0,1.8,90.9,1016.4,308.5,1.1,2.5,309.7,0.03,0.5,5.0,"08:12:00",1
"17/12/07","08:30",0.0,2.3,92.2,1016.4,130.9,0.8,1.1,129.9,0.04,1.2,5.0,"08:21:44",1
"17/12/07","08:40",0.0,2.9,87.8,1016.4,208.1,0.3,0.6,105.4,0.08,1.1,5.0,"08:39:08",1
"17/12/07","08:50",0.0,3.5,84.7,1016.4,222.8,0.6,1.2,229.3,0.11,1.2,5.2,"08:48:04",1
"17/12/07","09:00",0.0,3.9,83.0,1016.6,216.3,0.6,1.1,239.2,0.14,1.3,5.2,"08:51:10",1
"17/12/07","09:10",0.0,4.3,82.2,1016.8,215.2,0.6,1.1,180.6,0.16,1.6,5.5,"09:02:04",1
"17/12/07","09:20",0.0,4.6,79.9,1016.8,250.6,0.8,1.4,247.0,0.18,1.5,5.6,"09:16:24",1
"17/12/07","09:30",0.0,4.9,78.5,1016.8,253.5,1.0,1.4,254.2,0.20,1.5,5.9,"09:25:04",1
"17/12/07","09:40",0.0,5.3,77.2,1017.1,257.4,0.5,1.3,309.9,0.22,1.7,5.9,"09:35:54",1
"17/12/07","09:50",0.0,5.4,74.8,1017.1,241.9,1.1,1.9,234.3,0.24,1.3,6.1,"09:47:36",1
"17/12/07","10:00",0.0,6.0,75.0,1017.1,225.9,0.8,1.8,215.7,0.26,2.0,6.4,"09:57:04",1
"17/12/07","10:10",0.0,6.0,73.5,1017.3,238.6,1.5,2.5,241.1,0.28,1.7,6.4,"10:09:12",1
"17/12/07","10:20",0.0,6.8,72.0,1017.1,216.4,1.0,2.2,210.9,0.30,2.2,6.7,"10:19:28",1
"17/12/07","10:30",0.0,6.9,71.0,1016.8,224.6,1.1,2.1,122.5,0.31,2.1,6.7,"10:23:52",1
"17/12/07","10:40",0.0,7.6,71.9,1016.6,226.4,1.2,3.2,226.7,0.33,2.9,7.0,"10:34:08",1
"17/12/07","10:50",0.0,7.7,67.4,1016.4,245.2,0.8,2.4,161.3,0.34,2.1,7.3,"10:48:56",1
"17/12/07","11:00",0.0,8.1,68.4,1016.6,251.5,1.2,2.6,241.2,0.35,2.7,7.5,"10:59:04",1
"17/12/07","11:10",0.0,8.5,66.8,1016.1,300.2,0.6,1.7,229.9,0.36,2.7,7.7,"11:00:16",1
"17/12/07","11:20",0.0,8.5,63.7,1016.1,164.0,1.0,2.4,105.2,0.37,2.1,7.9,"11:16:10",1
"17/12/07","11:30",0.0,8.9,63.1,1015.9,152.9,0.7,1.8,104.7,0.37,2.3,8.2,"11:21:04",1
"17/12/07","11:40",0.0,9.2,63.7,1015.2,191.1,0.7,2.1,160.9,0.38,2.7,8.4,"11:33:44",1
"17/12/07","11:50",0.0,9.8,58.1,1014.9,210.3,1.0,1.9,238.6,0.38,2.0,8.6,"11:42:40",1
"17/12/07","12:00",0.0,9.8,58.1,1014.7,189.6,1.1,2.5,220.4,0.38,2.0,8.7,"11:53:28",1
"17/12/07","12:10",0.0,10.4,58.6,1014.7,187.5,1.2,2.5,211.0,0.38,2.7,9.0,"12:05:58",1
"17/12/07","12:20",0.0,10.4,57.2,1014.7,204.0,1.3,3.1,230.9,0.38,2.3,9.0,"12:15:44",1
"17/12/07","12:30",0.0,10.8,57.6,1014.2,223.4,1.3,3.1,233.8,0.38,2.8,9.2,"12:21:20",1
"17/12/07","12:40",0.0,10.6,58.7,1014.0,219.6,1.8,3.2,236.2,0.37,2.9,9.2,"12:33:36",1
"17/12/07","12:50",0.0,10.5,56.7,1014.0,226.6,1.6,2.7,224.6,0.32,2.3,9.4,"12:44:08",1
"17/12/07","13:00",0.0,10.7,56.6,1013.5,226.6,1.1,3.7,204.4,0.27,2.5,9.5,"12:57:20",1
"17/12/07","13:10",0.0,11.3,56.2,1013.5,207.6,1.3,3.6,216.9,0.36,2.9,9.7,"13:00:16",1
"17/12/07","13:20",0.0,11.3,54.2,1013.0,199.7,1.2,3.3,218.6,0.32,2.4,9.9,"13:14:32",1
"17/12/07","13:30",0.0,11.3,50.7,1013.0,208.3,1.6,3.5,206.1,0.32,1.5,9.9,"13:23:36",1
"17/12/07","13:40",0.0,11.4,52.2,1012.8,193.3,1.1,2.6,132.2,0.25,2.0,10.2,"13:36:48",1
"17/12/07","13:50",0.0,11.4,51.1,1012.8,196.3,1.6,3.3,124.2,0.28,1.7,10.1,"13:46:32",1
"17/12/07","14:00",0.0,11.2,52.0,1012.6,191.5,1.6,3.6,221.4,0.22,1.8,10.2,"13:50:48",1
"17/12/07","14:10",0.0,11.7,51.2,1012.6,206.5,1.3,2.7,134.1,0.26,2.0,10.2,"14:01:20",1
"17/12/07","14:20",0.0,12.0,50.4,1012.6,198.4,1.6,2.9,220.5,0.24,2.1,10.2,"14:16:32",1
"17/12/07","14:30",0.0,12.1,49.3,1012.1,247.3,0.8,2.6,236.6,0.18,1.8,10.3,"14:20:08",1
"17/12/07","14:40",0.0,11.8,48.1,1012.3,227.1,1.1,3.1,140.8,0.13,1.2,10.2,"14:35:28",1
"17/12/07","14:50",0.0,11.4,47.8,1012.6,240.5,3.1,6.3,208.0,0.11,0.8,10.1,"14:44:40",1
"17/12/07","15:00",0.0,11.6,50.8,1012.6,269.7,1.5,2.9,210.2,0.09,1.8,10.3,"14:50:16",1
"17/12/07","15:10",0.0,11.5,50.3,1012.6,253.4,2.0,3.6,241.3,0.10,1.6,10.1,"15:06:40",1
"17/12/07","15:20",0.0,11.5,49.6,1012.3,254.9,1.6,3.9,237.5,0.12,1.4,10.0,"15:11:12",1
"17/12/07","15:30",0.0,11.4,54.4,1012.3,240.1,1.0,2.4,243.8,0.07,2.6,9.9,"15:23:20",1
"17/12/07","15:40",0.0,10.7,60.5,1012.3,221.6,2.1,3.9,216.0,0.05,3.4,9.9,"15:39:54",1
"17/12/07","15:50",0.0,10.3,62.6,1012.1,219.0,2.1,5.0,207.0,0.05,3.5,9.8,"15:48:28",1
"17/12/07","16:00",0.0,10.0,64.5,1012.3,225.7,2.0,3.7,237.7,0.03,3.7,10.0,"15:52:50",1
"17/12/07","16:10",0.0,9.8,66.4,1012.3,222.6,2.2,5.4,225.5,0.01,3.9,9.8,"16:04:02",1
"17/12/07","16:20",0.0,9.6,67.1,1012.1,229.0,1.8,4.9,225.0,0.00,3.8,9.8,"16:10:24",1
"17/12/07","16:30",0.0,9.5,67.4,1011.9,235.7,1.6,3.9,201.6,0.00,3.8,9.8,"16:24:24",1
"17/12/07","16:40",0.0,9.4,67.8,1012.1,248.0,1.6,3.2,237.5,0.00,3.8,9.5,"16:34:40",1
"17/12/07","16:50",0.0,9.2,68.5,1012.1,266.7,1.3,2.1,255.1,0.00,3.8,9.5,"16:48:00",1
"17/12/07","17:00",0.0,8.8,69.4,1011.9,294.9,1.0,1.7,286.2,0.00,3.6,9.5,"16:50:16",1
"17/12/07","17:10",0.0,7.9,72.5,1011.9,332.3,1.8,2.6,328.8,0.00,3.3,9.3,"17:08:24",1
"17/12/07","17:20",0.0,7.1,76.8,1011.4,318.6,1.8,2.9,322.2,0.00,3.3,9.1,"17:14:08",1
"17/12/07","17:30",0.0,6.6,78.9,1011.6,300.5,1.5,2.1,320.0,0.00,3.2,9.1,"17:23:20",1
"17/12/07","17:40",0.0,6.5,80.9,1011.4,293.8,1.8,3.1,309.4,0.00,3.5,8.9,"17:39:28",1
"17/12/07","17:50",0.0,6.5,81.0,1011.4,294.7,2.1,3.7,317.3,0.00,3.5,9.0,"17:40:56",1
"17/12/07","18:00",0.0,6.2,82.4,1011.4,282.9,1.7,2.1,311.8,0.00,3.5,8.5,"17:56:40",1
"17/12/07","18:10",0.0,6.0,83.1,1011.6,294.4,2.0,2.4,279.0,0.00,3.4,8.7,"18:06:00",1
"17/12/07","18:20",0.0,5.9,83.3,1011.2,301.7,2.0,2.7,315.4,0.00,3.3,8.6,"18:11:44",1
"17/12/07","18:30",0.0,5.8,83.8,1011.4,307.7,2.5,3.4,308.8,0.00,3.3,8.6,"18:27:12",1
"17/12/07","18:40",0.0,5.7,84.2,1011.4,307.3,2.2,3.3,318.2,0.00,3.3,8.4,"18:32:40",1
"17/12/07","18:50",0.0,5.7,84.1,1011.4,318.5,2.6,3.9,327.0,0.00,3.3,8.6,"18:43:12",1
"17/12/07","19:00",0.0,5.3,85.7,1011.4,298.9,1.5,2.4,309.2,0.00,3.1,8.6,"18:50:32",1
"17/12/07","19:10",0.0,4.9,87.0,1011.4,311.0,1.3,1.9,318.6,0.00,3.0,8.2,"19:04:18",1
"17/12/07","19:20",0.0,4.5,86.9,1011.2,317.5,2.2,2.6,313.9,0.00,2.6,8.2,"19:14:42",1
"17/12/07","19:30",0.0,4.0,89.7,1010.7,306.3,1.6,2.0,320.5,0.00,2.5,8.2,"19:20:24",1
"17/12/07","19:40",0.0,4.0,90.4,1010.7,297.4,1.7,3.5,331.6,0.00,2.6,8.0,"19:37:38",1
"17/12/07","19:50",0.0,4.3,90.8,1010.7,288.3,1.8,2.8,328.0,0.00,3.0,8.1,"19:44:34",1
"17/12/07","20:00",0.0,4.4,89.7,1010.7,294.9,1.5,2.2,294.6,0.00,2.9,7.8,"19:52:14",1
"17/12/07","20:10",0.0,3.9,87.9,1010.9,300.4,1.8,3.1,318.3,0.00,2.1,7.9,"20:09:12",1
"17/12/07","20:20",0.0,3.3,90.3,1010.9,306.6,1.5,2.7,323.3,0.00,1.9,7.7,"20:10:56",1
"17/12/07","20:30",0.0,3.0,91.6,1010.4,262.6,0.3,1.7,311.0,0.00,1.8,7.7,"20:20:02",1
"17/12/07","20:40",0.0,3.2,93.3,1010.4,287.6,1.6,2.2,311.6,0.00,2.3,7.7,"20:39:20",1
"17/12/07","20:50",0.0,2.9,91.6,1010.7,305.7,2.1,3.3,322.4,0.00,1.7,7.6,"20:46:56",1
"17/12/07","21:00",0.0,2.6,93.4,1010.4,290.4,1.2,1.9,312.4,0.00,1.7,7.4,"20:50:32",1
"17/12/07","21:10",0.0,2.9,94.3,1010.4,235.8,0.3,1.1,295.7,0.00,2.1,7.3,"21:01:12",1
"17/12/07","21:20",0.0,2.7,93.2,1010.4,298.9,1.7,3.4,324.2,0.00,1.8,7.4,"21:18:48",1
"17/12/07","21:30",0.0,2.9,94.9,1010.0,326.6,1.8,3.2,318.0,0.00,2.2,7.1,"21:20:16",1
"17/12/07","21:40",0.0,3.1,94.4,1010.0,277.2,0.8,1.4,275.0,0.00,2.3,7.1,"21:36:24",1
"17/12/07","21:50",0.0,3.1,94.4,1010.0,287.2,1.3,1.8,297.5,0.00,2.3,7.2,"21:46:24",1
"17/12/07","22:00",0.0,3.1,94.7,1009.7,275.2,1.2,1.7,281.0,0.00,2.4,7.2,"21:57:28",1
"17/12/07","22:10",0.0,3.2,93.9,1010.0,286.0,1.0,1.8,310.1,0.00,2.4,7.2,"22:04:24",1
"17/12/07","22:20",0.0,3.2,94.3,1009.5,268.8,0.7,1.7,323.7,0.00,2.4,7.2,"22:16:08",1
"17/12/07","22:30",0.0,3.1,94.1,1010.0,306.2,2.0,2.8,318.5,0.00,2.3,7.2,"22:26:24",1
"17/12/07","22:40",0.0,2.9,94.1,1009.5,291.4,1.6,2.2,315.4,0.00,2.1,7.1,"22:32:08",1
"17/12/07","22:50",0.0,2.8,95.0,1009.7,278.5,1.6,1.9,258.3,0.00,2.1,7.1,"22:46:24",1
"17/12/07","23:00",0.0,2.9,95.2,1009.5,292.2,1.5,2.2,320.6,0.00,2.2,7.1,"22:54:40",1
"17/12/07","23:10",0.0,3.1,94.8,1008.8,298.9,1.5,2.5,317.9,0.00,2.4,7.1,"23:08:00",1
"17/12/07","23:20",0.0,3.0,94.3,1008.8,318.0,2.2,2.8,321.8,0.00,2.2,6.9,"23:14:16",1
"17/12/07","23:30",0.0,3.0,94.7,1008.8,315.2,1.8,2.4,318.2,0.00,2.3,7.1,"23:23:12",1
"17/12/07","23:40",0.0,3.1,95.2,1008.6,299.7,1.6,2.0,307.7,0.00,2.4,7.2,"23:30:40",1
"17/12/07","23:50",0.0,3.3,95.7,1008.6,286.6,1.1,1.4,305.4,0.00,2.7,7.1,"23:47:28",1
"17/12/07","24:00",0.0,3.5,95.1,1008.6,297.8,1.0,1.6,305.6,0.00,2.8,7.1,"23:59:36",1
